Tracking 19149 objects as of 22-Apr-2018
HD Live streaming from Space Station
objects crossing your sky now

FENGYUN 1C DEB

Track FENGYUN 1C DEB now!
10-day predictions


NORAD ID: 30024
Int'l Code: 1999-025MZ
Perigee: 444.7 km
Apogee: 706.3 km
Inclination: 98.7 °
Period: 96.0 minutes
Semi major axis: 6946 km
RCS: 0.033 m2 (small)
Launch date: May 10, 1999
Source: People's Republic of China (PRC)
Launch site: Taiyaun Space Center, China (TSC)

Note: This is SATELLITE DEBRIS
aabbcc
Your satellite tracking list
Your tracking list is empty




NASA's NSSDC Master Catalog

Two Line Element Set (TLE):
1 30024U 99025MZ  18111.56927390 +.00001960 +00000-0 +11511-3 0  9995
2 30024 098.7142 138.5496 0188302 163.4376 197.3111 14.99536105608785
Source of the keplerian elements: AFSPC